[TLELIST] Archives

 

[list_settings.list_name] Current TLEs

June 28th 2008 PST

HST 1 20580U 90037B 08179.25501669 .00000293 00000-0 98174-5 0 1656 2 20580 028.4699 257.5591 0003845 132.2853 227.8064 15.00389483796498 ISS (ZARYA) 1 25544U 98067A 08179.37559632 .00010039 00000-0 70804-4 0 7461 2 25544 051.6420 323.9720 0008200 300.1418 102.0678 15.74774152550134 CXO 1 25867U 99040B 08178.12500000 +.00000401 +00000-0 +10000-3 0 02141 2 25867 063.8093 080.2628 6854952 278.8297 354.8727 00.37808838003663 ____________________________________________________________________ These 2-Line ...Continue Reading

[list_settings.list_name] Current TLEs

June 27th 2008 PST

HST 1 20580U 90037B 08179.25501669 .00000293 00000-0 98174-5 0 1656 2 20580 028.4699 257.5591 0003845 132.2853 227.8064 15.00389483796498 ISS (ZARYA) 1 25544U 98067A 08179.37559632 .00010039 00000-0 70804-4 0 7461 2 25544 051.6420 323.9720 0008200 300.1418 102.0678 15.74774152550134 CXO 1 25867U 99040B 08178.12500000 +.00000401 +00000-0 +10000-3 0 02141 2 25867 063.8093 080.2628 6854952 278.8297 354.8727 00.37808838003663 ____________________________________________________________________ These 2-Line ...Continue Reading

[list_settings.list_name] Current TLEs

June 26th 2008 PST

HST 1 20580U 90037B 08177.65857160 .00000292 00000-0 97419-5 0 1647 2 20580 028.4700 267.9702 0003793 116.1250 243.9730 15.00389079796258 ISS (ZARYA) 1 25544U 98067A 08178.16163194 .00008829 00000-0 62877-4 0 7400 2 25544 051.6420 330.2135 0008276 295.5451 059.8713 15.74743243549934 CXO 1 25867U 99040B 08178.12500000 +.00000401 +00000-0 +10000-3 0 02141 2 25867 063.8093 080.2628 6854952 278.8297 354.8727 00.37808838003663 ____________________________________________________________________ These 2-Line ...Continue Reading

[list_settings.list_name] Current TLEs

June 25th 2008 PST

HST 1 20580U 90037B 08176.52775557 .00000291 00000-0 96550-5 0 1634 2 20580 028.4700 275.3442 0003748 104.6984 255.4019 15.00388790796086 ISS (ZARYA) 1 25544U 98067A 08177.35159110 .00008899 00000-0 63378-4 0 7362 2 25544 051.6419 334.3759 0008324 291.1464 149.0146 15.74728178549818 CXO 1 25867U 99040B 08175.50000000 +.00000384 +00000-0 +10000-3 0 02134 2 25867 063.7946 080.3301 6850316 278.8278 357.5882 00.37806826003653 ____________________________________________________________________ These 2-Line ...Continue Reading

[list_settings.list_name] Current TLEs

June 24th 2008 PST

HST 1 20580U 90037B 08174.73175232 .00000323 00000-0 12156-4 0 1623 2 20580 028.4700 287.0556 0003682 086.1936 273.9074 15.00388541795810 ISS (ZARYA) 1 25544U 98067A 08175.90175962 .00009859 00000-0 69814-4 0 7272 2 25544 051.6404 341.8305 0008425 285.9465 209.6188 15.74703375549581 CXO 1 25867U 99040B 08175.50000000 +.00000384 +00000-0 +10000-3 0 02134 2 25867 063.7946 080.3301 6850316 278.8278 357.5882 00.37806826003653 ____________________________________________________________________ These 2-Line ...Continue Reading

[list_settings.list_name] Current TLEs

June 23rd 2008 PST

HST 1 20580U 90037B 08174.73175232 .00000323 00000-0 12156-4 0 1623 2 20580 028.4700 287.0556 0003682 086.1936 273.9074 15.00388541795810 ISS (ZARYA) 1 25544U 98067A 08173.87319258 +.00011978 +00000-0 +84012-4 0 07142 2 25544 051.6399 352.2609 0008439 275.7852 232.3726 15.74665600549263 CXO 1 25867U 99040B 08172.83333333 +.00000312 +00000-0 +10000-3 0 02125 2 25867 063.7825 080.3918 6845692 278.8381 354.5878 00.37806219003646 ____________________________________________________________________ These 2-Line ...Continue Reading

[list_settings.list_name] Current TLEs

June 22nd 2008 PST

HST 1 20580U 90037B 08172.73619251 +.00000325 +00000-0 +12349-4 0 01799 2 20580 028.4699 300.0703 0003627 064.5260 295.5703 15.00387909795519 ISS (ZARYA) 1 25544U 98067A 08172.86842593 +.00012567 +00000-0 +88022-4 0 07075 2 25544 051.6399 357.4265 0008379 272.0796 296.4585 15.74640129549104 CXO 1 25867U 99040B 08172.83333333 +.00000312 +00000-0 +10000-3 0 02125 2 25867 063.7825 080.3918 6845692 278.8381 354.5878 00.37806219003646 ____________________________________________________________________ These 2-Line ...Continue Reading

(no subject)

June 21st 2008 PST

HST 1 20580U 90037B 08171.80493261 +.00000326 +00000-0 +12355-4 0 01616 2 20580 028.4690 306.1595 0003422 054.8385 305.2524 15.00387521795373 ISS (ZARYA) 1 25544U 98067A 08172.53308641 .00016704 00000-0 11552-3 0 7058 2 25544 051.6401 359.1495 0008459 270.5154 195.8158 15.74638568549058 CXO 1 25867U 99040B 08172.83333333 +.00000312 +00000-0 +10000-3 0 02125 2 25867 063.7825 080.3918 6845692 278.8381 354.5878 00.37806219003646 ____________________________________________________________________ These 2-Line ...Continue Reading

Current TLEs

June 20th 2008 PST

HST 1 20580U 90037B 08171.73841392 .00000318 00000-0 11752-4 0 1600 2 20580 028.4690 306.5931 0003408 054.0999 305.9908 15.00387443795363 ISS (ZARYA) 1 25544U 98067A 08170.94347382 +.00017507 +00000-0 +10894-3 0 06921 2 25544 051.6427 007.3198 0005894 350.2420 096.0875 15.77053772548801 CXO 1 25867U 99040B 08170.20833333 +.00000253 +00000-0 +10000-3 0 02112 2 25867 063.7732 080.4580 6840292 278.8550 357.2352 00.37805332003639 ____________________________________________________________________ These 2-Line ...Continue Reading

Current TLEs

June 19th 2008 PST

HST 1 20580U 90037B 08169.74285135 .00000323 00000-0 12185-4 0 1590 2 20580 028.4689 319.6065 0003396 031.4739 328.6053 15.00386802795069 ISS (ZARYA) 1 25544U 98067A 08171.13644796 .00017706 00000-0 11009-3 0 6933 2 25544 051.6436 006.3253 0005869 351.1617 111.5028 15.77061664548837 CXO 1 25867U 99040B 08170.20833333 +.00000253 +00000-0 +10000-3 0 02112 2 25867 063.7732 080.4580 6840292 278.8550 357.2352 00.37805332003639 ____________________________________________________________________ These 2-Line ...Continue Reading
  • This mailing list is a public mailing list - anyone may join or leave, at any time.
  • This mailing list is announce-only.

International Space Station (ISS) / Hubble Space Telescope (HST) / Chandra X-Ray Observatory Orbital Data via EMAIL

Privacy Policy:

Private list